Home   Weather   Mazatlan   Past weeks

Flag for Mexico Past Weather in Mazatlan, Sinaloa, Mexico — Yesterday and Last 2 Weeks

Now
59 °F

Sunny.


Feels Like: 59 °F
Forecast: 62 / 70 °F
Wind: No wind

Location: Culiacan - Sin.

Current Time: Jan 17, 2017 at 10:27:53 am

Latest Report: Jan 17, 2017 at 8:40 am


Visibility: 10 mi

Pressure: 30.05 "Hg

Humidity: 77%

Dew Point: 52 °F

Location of MazatlanLocation

Past Weather in Mazatlan — Graph

°F

Mazatlan Temperature Yesterday

Maximum temperature yesterday: 73 °F (at 1:40 pm)
Minimum temperature yesterday: 52 °F (at 5:56 am)
Average temperature yesterday: 65 °F

High & Low Weather Summary for the Past Weeks

 TemperatureHumidityPressure
High88 °F (Jan 3, 2:43 pm)100% (Jan 4, 6:50 am)30.18 "Hg (Jan 4, 6:50 am)
Low48 °F (Jan 17, 6:08 am)33% (Jan 6, 3:40 pm)29.79 "Hg (Jan 5, 3:44 pm)
Average71 °F63%29.97 "Hg
* Reported Jan 2 8:40 am — Jan 17 8:40 am, Mazatlan, Weather by CustomWeather, © 2017

Note: Actual official high and low records may vary slightly from our data, if they occured in-between our weather recording intervals... More about our weather records

Advertising

Mazatlan Weather History for the Previous 24 Hours

Scroll right to see more
 ConditionsComfort  
Time TempWeatherWind HumidityBarometerVisibility
8:40 am
Tue, Jan 17
59 °FSunny.No wind77%30.05 "Hg10 mi
7:44 am52 °FScattered clouds.No wind94%30.06 "Hg10 mi
6:40 am50 °FClear.No wind94%30.01 "Hg6 mi
6:08 am48 °FFog.No wind94%30.01 "Hg3 mi
9:40 pm
Mon, Jan 16
63 °FPassing clouds.No wind68%29.96 "Hg10 mi
8:42 pm63 °FPassing clouds.No wind68%29.95 "Hg10 mi
7:40 pm63 °FPassing clouds.No wind68%29.94 "Hg10 mi
6:41 pm64 °FPassing clouds.No wind56%29.93 "Hg10 mi
5:41 pm68 °FPartly sunny.7 mph53%29.92 "Hg10 mi
4:40 pm72 °FPartly sunny.7 mph47%29.90 "Hg10 mi
3:40 pm72 °FPartly sunny.7 mph47%29.90 "Hg10 mi
2:40 pm73 °FPartly sunny.No wind47%29.92 "Hg10 mi
1:40 pm73 °FScattered clouds.No wind44%29.93 "Hg10 mi
12:41 pm72 °FScattered clouds.5 mph44%29.97 "Hg10 mi
11:42 am68 °FScattered clouds.3 mph49%30.01 "Hg10 mi
10:42 am66 °FPartly sunny.No wind56%30.03 "Hg10 mi
Weather by CustomWeather, © 2017

See weather overviewHow to use our weather pages